Mattaponi, VA

1:14 AM EST on December 10, 2016 (GMT -0500)
West Point

Weather History for KFYJ - October, 2011

Change the Weather History Date:

Friday, October 28, 2011

  Actual Average (KJGG) Record (KJGG)
Temperature  
Mean Temperature 48 °F -  
Max Temperature 53 °F 67 °F 86 °F (1984)
Min Temperature 42 °F 44 °F 29 °F (1957)
Degree Days  
Heating Degree Days 18    
Moisture  
Dew Point 40 °F    
Average Humidity 81    
Maximum Humidity 100    
Minimum Humidity 66    
Precipitation  
Precipitation 0.02 in - - ()
Sea Level Pressure  
Sea Level Pressure 30.17 in    
Wind  
Wind Speed 7 mph (North)    
Max Wind Speed 14 mph    
Max Gust Speed 21 mph    
Visibility 10 miles    
Events      
Averages and records for this station are not official NWS values.
T = Trace of Precipitation, MM = Missing Value Source: NWS Daily Summary

Daily Weather History Graph

Daily Weather History Graph

Search for Another Location

Airport or City:

Trip Planner

Search our weather history database for the weather conditions in past years. The results will help you decide how hot, cold, wet, or windy it might be!

Date:

Astronomy

Oct. 28, 2011 Rise Set
Actual Time 7:27 AM EDT 6:13 PM EDT
Civil Twilight 7:00 AM EDT 6:40 PM EDT
Nautical Twilight 6:30 AM EDT 7:11 PM EDT
Astronomical Twilight 5:59 AM EDT 7:41 PM EDT
Moon 9:37 AM EDT (10/28) 7:38 PM EDT (10/28)
Length of Visible Light 11h 39m
Length of Day
10h 45m
Waxing Crescent, 5% of the Moon is Illuminated
Oct 28
Waxing Crescent
Nov 2
First Quarter
Nov 10
Full
Nov 18
Last Quarter
Nov 25
New

Hourly Weather History & Observations

Time (EDT) Temp. Windchill Dew Point Humidity Pressure Visibility Wind Dir Wind Speed Gust Speed Precip Events Conditions
12:55 AM 53.6 °F - 44.6 °F 72% 30.02 in 10.0 mi NNW 5.8 mph 18.4 mph N/A   Overcast
1:15 AM 51.8 °F - 44.6 °F 76% 30.03 in 10.0 mi North 8.1 mph 17.3 mph N/A   Overcast
1:35 AM 51.8 °F - 42.8 °F 71% 30.04 in 10.0 mi NNW 12.7 mph 18.4 mph N/A   Overcast
1:55 AM 51.8 °F - 42.8 °F 71% 30.06 in 10.0 mi North 9.2 mph 18.4 mph N/A   Overcast
2:15 AM 50.0 °F - 41.0 °F 71% 30.07 in 10.0 mi NNW 11.5 mph 20.7 mph N/A   Overcast
2:35 AM 48.2 °F - 41.0 °F 76% 30.08 in 10.0 mi North 10.4 mph 20.7 mph N/A   Overcast
2:55 AM 46.4 °F 42.4 °F 41.0 °F 81% 30.08 in 10.0 mi North 8.1 mph 17.3 mph N/A   Overcast
3:15 AM 46.4 °F 41.5 °F 41.0 °F 81% 30.10 in 10.0 mi NNW 10.4 mph 16.1 mph N/A   Overcast
3:35 AM 46.4 °F 42.9 °F 41.0 °F 81% 30.10 in 10.0 mi North 6.9 mph - N/A   Overcast
3:55 AM 46.4 °F 43.5 °F 41.0 °F 81% 30.10 in 10.0 mi North 5.8 mph - N/A   Overcast
4:15 AM 46.4 °F 42.9 °F 39.2 °F 76% 30.12 in 10.0 mi North 6.9 mph - N/A   Overcast
4:35 AM 46.4 °F 42.4 °F 37.4 °F 71% 30.11 in 10.0 mi North 8.1 mph - N/A   Overcast
4:55 AM 46.4 °F 41.5 °F 37.4 °F 71% 30.12 in 10.0 mi North 10.4 mph - N/A   Overcast
5:15 AM 46.4 °F 41.9 °F 37.4 °F 71% 30.13 in 10.0 mi North 9.2 mph 17.3 mph N/A   Overcast
5:35 AM 46.4 °F 40.4 °F 35.6 °F 66% 30.13 in 10.0 mi North 13.8 mph 18.4 mph N/A   Overcast
6:15 AM 44.6 °F 41.4 °F 35.6 °F 71% 30.15 in 10.0 mi North 5.8 mph - N/A   Overcast
6:35 AM 44.6 °F 42.2 °F 37.4 °F 76% 30.16 in 10.0 mi North 4.6 mph - N/A   Overcast
7:15 AM 44.6 °F 42.2 °F 37.4 °F 76% 30.17 in 10.0 mi North 4.6 mph - N/A   Overcast
7:35 AM 44.6 °F 43.1 °F 37.4 °F 76% 30.19 in 10.0 mi NNW 3.5 mph - N/A   Overcast
7:55 AM 44.6 °F 42.2 °F 39.2 °F 81% 30.19 in 10.0 mi North 4.6 mph - N/A   Overcast
8:15 AM 44.6 °F 42.2 °F 39.2 °F 81% 30.20 in 10.0 mi North 4.6 mph - N/A   Overcast
8:35 AM 44.6 °F 42.2 °F 39.2 °F 81% 30.21 in 10.0 mi NNW 4.6 mph - N/A   Overcast
8:55 AM 44.6 °F 43.1 °F 39.2 °F 81% 30.21 in 10.0 mi North 3.5 mph - N/A   Overcast
9:15 AM 44.6 °F 40.7 °F 39.2 °F 81% 30.21 in 10.0 mi NE 6.9 mph - N/A   Overcast
9:35 AM 44.6 °F 40.2 °F 37.4 °F 76% 30.21 in 10.0 mi NE 8.1 mph - N/A   Overcast
9:55 AM 44.6 °F 39.7 °F 37.4 °F 76% 30.22 in 10.0 mi NE 9.2 mph - N/A   Overcast
10:15 AM 44.6 °F 40.7 °F 37.4 °F 76% 30.23 in 10.0 mi NNE 6.9 mph - N/A   Overcast
10:35 AM 44.6 °F 40.7 °F 37.4 °F 76% 30.23 in 10.0 mi NE 6.9 mph - N/A   Overcast
11:15 AM 44.6 °F 40.7 °F 37.4 °F 76% 30.24 in 10.0 mi NNE 6.9 mph - N/A   Overcast
11:35 AM 44.6 °F 41.4 °F 39.2 °F 81% 30.24 in 10.0 mi NNE 5.8 mph - N/A   Overcast
11:55 AM 44.6 °F 40.7 °F 39.2 °F 81% 30.24 in 10.0 mi NE 6.9 mph - N/A   Overcast
12:15 PM 44.6 °F 41.4 °F 41.0 °F 87% 30.23 in 10.0 mi NNE 5.8 mph - N/A   Overcast
12:35 PM 44.6 °F 42.2 °F 37.4 °F 76% 30.23 in 10.0 mi NE 4.6 mph - N/A   Overcast
12:55 PM 46.4 °F 43.5 °F 39.2 °F 76% 30.23 in 10.0 mi NE 5.8 mph - N/A   Overcast
1:15 PM 46.4 °F 42.4 °F 39.2 °F 76% 30.22 in 10.0 mi NNE 8.1 mph - N/A   Overcast
1:35 PM 44.6 °F 40.7 °F 41.0 °F 87% 30.21 in 10.0 mi NNE 6.9 mph - N/A   Overcast
1:55 PM 46.4 °F 43.5 °F 39.2 °F 76% 30.21 in 10.0 mi NNE 5.8 mph - N/A   Overcast
2:15 PM 46.4 °F 44.3 °F 37.4 °F 71% 30.21 in 10.0 mi NNE 4.6 mph - N/A   Overcast
2:35 PM 46.4 °F 45.2 °F 37.4 °F 71% 30.21 in 10.0 mi NNE 3.5 mph - N/A   Overcast
3:15 PM 46.4 °F 44.3 °F 39.2 °F 76% 30.21 in 10.0 mi NNE 4.6 mph - N/A   Overcast
3:35 PM 44.6 °F 43.1 °F 41.0 °F 87% 30.20 in 10.0 mi NE 3.5 mph - N/A   Overcast
3:55 PM 44.6 °F 42.2 °F 41.0 °F 87% 30.20 in 10.0 mi NNE 4.6 mph - N/A   Overcast
4:15 PM 44.6 °F - 41.0 °F 87% 30.21 in 10.0 mi Calm Calm - N/A   Overcast
4:35 PM 44.6 °F - 41.0 °F 87% 30.21 in 10.0 mi Calm Calm - N/A   Overcast
4:55 PM 44.6 °F - 41.0 °F 87% 30.21 in 10.0 mi Calm Calm - N/A   Overcast
5:15 PM 44.6 °F 43.1 °F 42.8 °F 93% 30.21 in 10.0 mi North 3.5 mph - 0.01 in   Overcast
5:35 PM 44.6 °F 43.1 °F 42.8 °F 93% 30.20 in 10.0 mi North 3.5 mph - 0.01 in   Overcast
5:55 PM 42.8 °F 40.1 °F 42.8 °F 100% 30.19 in 10.0 mi North 4.6 mph - 0.02 in   Overcast
6:15 PM 42.8 °F 41.1 °F 42.8 °F 100% 30.19 in 10.0 mi North 3.5 mph - N/A   Overcast
6:35 PM 42.8 °F 41.1 °F 42.8 °F 100% 30.19 in 10.0 mi North 3.5 mph - N/A   Overcast
6:55 PM 42.8 °F 40.1 °F 42.8 °F 100% 30.19 in 10.0 mi North 4.6 mph - N/A   Overcast
7:15 PM 42.8 °F 41.1 °F 42.8 °F 100% 30.18 in 10.0 mi NNE 3.5 mph - N/A   Overcast
7:35 PM 42.8 °F 41.1 °F 42.8 °F 100% 30.19 in 10.0 mi North 3.5 mph - N/A   Overcast
7:55 PM 44.6 °F 43.1 °F 42.8 °F 93% 30.18 in 10.0 mi NNE 3.5 mph - N/A   Overcast
8:15 PM 44.6 °F - 44.6 °F 100% 30.17 in 10.0 mi Calm Calm - N/A   Overcast
8:35 PM 44.6 °F 43.1 °F 44.6 °F 100% 30.17 in 10.0 mi North 3.5 mph - 0.01 in   Overcast
9:15 PM 44.6 °F 42.2 °F 44.6 °F 100% 30.16 in 10.0 mi North 4.6 mph - N/A   Overcast
9:35 PM 44.6 °F 41.4 °F 44.6 °F 100% 30.16 in 10.0 mi North 5.8 mph - N/A   Overcast
10:15 PM 44.6 °F 43.1 °F 44.6 °F 100% 30.15 in 10.0 mi NNE 3.5 mph - N/A   Overcast
10:35 PM 44.6 °F 41.4 °F 44.6 °F 100% 30.15 in 10.0 mi NNE 5.8 mph - N/A   Overcast
10:55 PM 46.4 °F 42.9 °F 46.4 °F 100% 30.13 in 10.0 mi NE 6.9 mph - N/A   Overcast
11:15 PM 46.4 °F 42.9 °F 46.4 °F 100% 30.12 in 7.0 mi NE 6.9 mph - N/A   Overcast
11:35 PM 46.4 °F 42.9 °F 46.4 °F 100% 30.11 in 5.0 mi NNE 6.9 mph - N/A   Overcast
11:55 PM 46.4 °F 44.3 °F 46.4 °F 100% 30.11 in 5.0 mi NNE 4.6 mph - N/A   Overcast